Flag for Tajikistan Weather past 2 weeks in Dushanbe, Tajikistan

Now
59 °F

Thundershowers. Mostly cloudy.


Feels Like: 60 °F
Forecast: 44 / 67 °F
Wind: 3 mph from North

Location: Dushanbe Airport


UV Index: 5 (Moderate)

Visibility: N/A


Pressure: 30.04 "Hg

Humidity: 68%

Dew point: 48 °F

Location of DushanbeLocation

Historic Weather in Dushanbe

°F

Dushanbe temperature yesterday

Maximum temperature yesterday: 70 °F (at 11:00 AM)
Minimum temperature yesterday: 50 °F (at 5:30 AM)
Average temperature yesterday: 60 °F

Past Weeks' High & Low Weather Summary

 TemperatureHumidityPressure
High73 °F (Apr 15, 2:00 PM)100% (Apr 5, 3:30 AM)30.39 "Hg (Apr 5, 3:30 AM)
Low41 °F (Apr 8, 5:00 AM)12% (Apr 9, 4:30 PM)29.77 "Hg (Apr 3, 5:30 PM)
Average56 °F66%30.09 "Hg
* Reported Apr 2 5:00 PM — Apr 17 5:30 PM, Dushanbe, Weather by CustomWeather, © 2014

Note: Actual official high and low records may vary slightly from our data, if they occured in-between our weather recording intervals... More about our weather records

Advertising

Historic Weather Conditions — Data for Previous 24 hours

 ConditionsComfort  
Time TempWeatherWind HumidityBarometerVisibility
5:30 PM
Apr 17
59 °FThunderstorms. Broken clouds.3 mph63%30.04 "HgN/A
5:00 PM59 °FThunderstorms. Broken clouds.6 mph68%30.04 "HgN/A
4:30 PM59 °FBroken clouds.8 mph68%30.01 "HgN/A
4:00 PM61 °FBroken clouds.8 mph63%30.01 "HgN/A
3:30 PM59 °FMore clouds than sun.13 mph63%30.01 "HgN/A
3:00 PM61 °FBroken clouds.6 mph63%30.04 "HgN/A
2:30 PM61 °FBroken clouds.6 mph68%30.04 "HgN/A
2:00 PM61 °FBroken clouds.6 mph63%30.04 "HgN/A
1:30 PM59 °FBroken clouds.3 mph63%30.04 "HgN/A
1:00 PM57 °FBroken clouds.3 mph77%30.04 "HgN/A
12:30 PM57 °FMostly cloudy.3 mph72%30.04 "HgN/A
12:00 PM57 °FMostly cloudy.6 mph72%30.07 "HgN/A
11:30 AM57 °FMore clouds than sun.6 mph72%30.07 "HgN/A
11:00 AM57 °FMore clouds than sun.6 mph72%30.07 "HgN/A
10:30 AM55 °FMore clouds than sun.6 mph82%30.07 "HgN/A
10:00 AM55 °FMore clouds than sun.6 mph82%30.04 "HgN/A
9:30 AM54 °FMore clouds than sun.3 mph88%30.04 "HgN/A
9:00 AM54 °FMore clouds than sun.3 mph88%30.04 "Hg5 mi
8:30 AM54 °FMore clouds than sun.1 mph88%30.04 "HgN/A
8:00 AM52 °FMostly cloudy.No wind94%30.04 "Hg4 mi
7:30 AM52 °FSprinkles. Fog.No wind94%30.04 "Hg3 mi
7:00 AM52 °FSprinkles. Fog.1 mph94%30.04 "Hg2 mi
6:30 AM52 °FMostly cloudy.No wind94%30.01 "Hg4 mi
6:00 AM52 °FMostly cloudy.No wind94%30.01 "Hg5 mi
5:30 AM52 °FMostly cloudy.No wind94%30.01 "Hg4 mi
5:00 AM52 °FMostly cloudy.1 mph94%30.01 "Hg4 mi
4:30 AM52 °FMostly cloudy.No wind94%30.01 "HgN/A
4:00 AM52 °FMostly cloudy.No wind88%30.01 "HgN/A
3:30 AM52 °FSprinkles. Mostly cloudy.No wind94%30.04 "HgN/A
3:00 AM52 °FSprinkles. Mostly cloudy.No wind94%30.04 "Hg6 mi
2:30 AM52 °FSprinkles. Mostly cloudy.No wind94%30.04 "Hg6 mi
2:00 AM52 °FSprinkles. Mostly cloudy.1 mph94%30.04 "Hg6 mi
1:30 AM52 °FSprinkles. Overcast.No wind94%30.04 "Hg6 mi
1:00 AM52 °FSprinkles. Overcast.No wind94%30.07 "Hg4 mi
12:30 AM52 °FSprinkles. Overcast.1 mph94%30.07 "Hg4 mi
12:00 AM52 °FSprinkles. Overcast.3 mph94%30.07 "Hg5 mi
11:30 PM
Apr 16
54 °FSprinkles. Overcast.6 mph88%30.07 "HgN/A
11:00 PM52 °FSprinkles. Overcast.6 mph88%30.07 "Hg4 mi
10:30 PM52 °FSprinkles. Overcast.8 mph88%30.07 "Hg4 mi
10:00 PM54 °FSprinkles. Overcast.6 mph82%30.09 "Hg4 mi
9:30 PM54 °FRain showers. Mostly cloudy.6 mph88%30.09 "Hg3 mi
9:00 PM55 °FSprinkles. Mostly cloudy.8 mph77%30.07 "Hg4 mi
8:30 PM57 °FMostly cloudy.6 mph77%30.07 "HgN/A
8:00 PM57 °FMostly cloudy.1 mph77%30.04 "HgN/A
7:30 PM57 °FThundershowers. Mostly cloudy.6 mph77%30.01 "HgN/A
7:00 PM57 °FThunderstorms. Partly sunny.3 mph82%30.01 "Hg2 mi
6:00 PM61 °FThunderstorms. Mostly cloudy.8 mph68%30.01 "HgN/A
Weather by CustomWeather, © 2014

See weather overview